Time,TemperatureF,DewpointF,PressureIn,WindDirection,WindDirectionDegrees,WindSpeedMPH,WindSpeedGustMPH,Humidity,HourlyPrecipIn,Conditions,Clouds,dailyrainin,SoftwareType,DateUTC
2013-08-27 00:23:00,76.0,72.0,-100.00,South,180,3.0,4.0,89,-99.99,,,-99.99,,2013-08-27 05:23:00,
2013-08-27 00:52:00,76.0,72.0,-100.00,SSW,200,2.0,4.0,89,-99.99,,,-99.99,,2013-08-27 05:52:00,
2013-08-27 01:22:00,75.0,72.0,-100.00,SSW,205,3.0,4.0,89,-99.99,,,-99.99,,2013-08-27 06:22:00,
2013-08-27 01:52:00,75.0,72.0,-100.00,SSW,210,4.0,5.0,89,-99.99,,,-99.99,,2013-08-27 06:52:00,
2013-08-27 02:21:00,75.0,72.0,-100.00,SSW,200,3.0,4.0,90,-99.99,,,-99.99,,2013-08-27 07:21:00,
2013-08-27 02:52:00,74.0,71.0,-100.00,SSW,205,4.0,5.0,91,-99.99,,,-99.99,,2013-08-27 07:52:00,
2013-08-27 03:22:00,74.0,71.0,-100.00,South,170,2.0,4.0,91,-99.99,,,-99.99,,2013-08-27 08:22:00,
2013-08-27 03:52:00,73.0,71.0,-100.00,South,185,4.0,4.0,91,-99.99,,,-99.99,,2013-08-27 08:52:00,
2013-08-27 04:21:00,73.0,71.0,-100.00,SSW,200,4.0,4.0,91,-99.99,,,-99.99,,2013-08-27 09:21:00,
2013-08-27 04:54:00,73.0,70.0,-100.00,SSW,200,3.0,4.0,91,-99.99,,,-99.99,,2013-08-27 09:54:00,
2013-08-27 05:25:00,73.0,70.0,-100.00,SSW,205,4.0,4.0,91,-99.99,,,-99.99,,2013-08-27 10:25:00,
2013-08-27 05:53:00,72.0,70.0,-100.00,SSW,195,3.0,4.0,91,-99.99,,,-99.99,,2013-08-27 10:53:00,
2013-08-27 06:22:00,72.0,70.0,-100.00,SW,220,3.0,4.0,91,-99.99,,,-99.99,,2013-08-27 11:22:00,
2013-08-27 06:52:00,72.0,70.0,-100.00,SW,215,4.0,5.0,91,-99.99,,,-99.99,,2013-08-27 11:52:00,
2013-08-27 07:21:00,72.0,69.0,-100.00,SW,230,3.0,4.0,91,-99.99,,,-99.99,,2013-08-27 12:21:00,
2013-08-27 07:52:00,72.0,70.0,-100.00,WSW,255,4.0,4.0,91,-99.99,,,-99.99,,2013-08-27 12:52:00,
2013-08-27 08:22:00,73.0,71.0,-100.00,WSW,255,4.0,5.0,91,-99.99,,,-99.99,,2013-08-27 13:22:00,
2013-08-27 08:52:00,75.0,72.0,-100.00,WSW,255,4.0,6.0,89,-99.99,,,-99.99,,2013-08-27 13:52:00,
2013-08-27 09:22:00,77.0,72.0,-100.00,WSW,245,4.0,6.0,84,-99.99,,,-99.99,,2013-08-27 14:22:00,
2013-08-27 09:53:00,81.0,73.0,-100.00,WSW,240,5.0,9.0,77,-99.99,,,-99.99,,2013-08-27 14:53:00,
2013-08-27 10:22:00,82.0,72.0,-100.00,West,260,6.0,11.0,71,-99.99,,,-99.99,,2013-08-27 15:22:00,
2013-08-27 10:58:00,84.0,72.0,-100.00,SW,235,5.0,11.0,68,-99.99,,,-99.99,,2013-08-27 15:58:00,
2013-08-27 11:28:00,85.0,71.0,-100.00,WSW,255,8.0,11.0,63,-99.99,,,-99.99,,2013-08-27 16:28:00,
2013-08-27 11:55:00,87.0,71.0,-100.00,WSW,250,7.0,11.0,60,-99.99,,,-99.99,,2013-08-27 16:55:00,
2013-08-27 12:23:00,88.0,71.0,-100.00,SW,230,5.0,10.0,59,-99.99,,,-99.99,,2013-08-27 17:23:00,
2013-08-27 12:52:00,89.0,72.0,-100.00,SW,230,6.0,10.0,57,-99.99,,,-99.99,,2013-08-27 17:52:00,
2013-08-27 13:22:00,90.0,71.0,-100.00,WSW,255,7.0,11.0,55,-99.99,,,-99.99,,2013-08-27 18:22:00,
2013-08-27 13:53:00,90.0,71.0,-100.00,SW,230,6.0,11.0,53,-99.99,,,-99.99,,2013-08-27 18:53:00,
2013-08-27 14:22:00,91.0,71.0,-100.00,WSW,250,6.0,11.0,53,-99.99,,,-99.99,,2013-08-27 19:22:00,
2013-08-27 14:52:00,92.0,72.0,-100.00,SW,235,6.0,11.0,51,-99.99,,,-99.99,,2013-08-27 19:52:00,